Location: Cudham
(51.3000°N, 0.0667°E)
Time: 07:07:26
(UTC+00:00)

NOSS 7 (H) - Pass Details

Date: 19 May 2025
Orbit: 362 x 1534 km, 63.3° (Epoch: 18 June)

Event Time Altitude Azimuth Distance (km) Brightness Sun altitude
Rises 20:52:03 0° 316° (NW) 2,218 10.5 -8.1°
Reaches altitude 10° 20:54:00 10° 318° (NW) 1,359 8.6 -8.3°
Maximum altitude 20:56:53 74° 44° (NE) 398 4.1 -8.6°
Enters shadow 20:59:40 13° 130° (SE) 1,321 6.1 -8.9°
